Location: Casper
(42.8670°N, 106.3130°W)
Time: 05:02:12
(UTC-06:00)

Daily predictions for brighter satellites

Satellite Brightness Start Highest point End
(mag) Time Altitude Azimuth Time Altitude Azimuth Time Altitude Azimuth
SJ 16-02 3.6 00:01:07 10° WNW 00:03:32 15° W 00:04:12 14° WSW
Cosmos 2237 Rocket 2.2 00:00:46 10° NNW 00:06:30 78° ENE 00:07:27 62° SE
Terra 3.6 00:08:32 20° WSW 00:09:26 21° W 00:13:04 10° NW
Cosmos 2082 3.9 00:12:54 53° ESE 00:12:59 53° ESE 00:18:34 10° NNE
Cosmos 2228 3.6 00:10:01 10° NNW 00:13:55 50° W 00:13:55 50° W
Cosmos 1726 Rocket 4.5 00:10:52 10° NNW 00:14:58 39° W 00:14:59 39° W
Meteor 1-21 4.3 00:14:44 54° SW 00:15:52 69° WNW 00:21:30 10° N
ISS -0.9 00:13:57 10° NW 00:16:18 18° N 00:18:38 10° NE
Cosmos 1538 Rocket 3.9 00:15:59 73° SW 00:16:30 84° WNW 00:21:46 10° NNE
Cosmos 2180 Rocket 4.5 00:15:21 55° SSW 00:16:52 84° W 00:23:12 10° N
Abrixas rocket 4.3 00:16:29 10° WNW 00:18:40 26° NNW 00:18:40 26° NNW
Cosmos 923 Rocket 4.4 00:23:39 50° E 00:23:39 50° E 00:28:27 10° NNE
Cosmos 1680 Rocket 4.3 00:25:20 38° E 00:25:20 38° E 00:29:41 10° NE
Cosmos 1758 3.8 00:22:20 10° N 00:25:42 58° NNW 00:25:42 58° NNW
Cosmos 2058 Rocket 3.9 00:22:45 10° NNW 00:26:53 42° W 00:26:53 42° W
Cosmos 2219 4.3 00:26:40 22° WSW 00:29:49 39° WNW 00:35:12 10° NNE
COSMOS 2455 2.7 00:30:39 65° SSW 00:31:37 86° ESE 00:37:41 10° NNE
DELTA 2 DEB (DPAF) 4.2 00:35:55 73° NW 00:35:55 73° NW 00:40:01 10° NNW
ADEOS Rocket 2.7 00:30:35 10° NNE 00:36:05 62° ESE 00:36:22 61° ESE
CZ-4 R/B 4.3 00:31:16 10° N 00:36:12 57° WNW 00:36:48 53° WSW
ALOS 2 2.8 00:40:16 69° NW 00:40:16 69° NW 00:44:12 10° NNW
Cosmos 1733 4.3 00:36:42 10° NNW 00:39:29 42° NW 00:39:29 42° NW
CZ-4B R/B 3.4 00:36:07 10° NNE 00:41:13 77° ESE 00:41:18 77° ESE
ERBS 4.3 00:41:10 10° NW 00:43:10 29° NNW 00:43:10 29° NNW
Cosmos 1470 3.9 00:52:59 10° NNW 00:55:42 38° NW 00:55:42 38° NW
Cosmos 2219 Rocket 3.8 00:53:03 10° NW 00:56:58 20° W 00:57:01 20° W
deb Chang Zheng 4 4.0 00:53:28 10° NNE 00:57:06 57° NE 00:57:06 57° NE
USA 229 DEB 4.0 00:57:26 45° SE 00:57:50 46° ESE 01:04:19 10° NE
USA 229 4.0 00:57:33 45° SE 00:57:57 45° ESE 01:04:25 10° NE
Cosmos 1626 Rocket 4.4 00:58:43 44° WNW 00:58:43 44° WNW 01:02:47 10° N
CZ-4C R/B 4.2 00:59:39 50° WNW 00:59:39 50° WNW 01:03:25 10° NNW
Cosmos 1812 Rocket 4.0 00:54:57 10° NNW 00:58:36 55° NW 00:58:36 55° NW
Cosmos 1602 Rocket 4.3 01:00:59 46° WNW 01:00:59 46° WNW 01:04:57 10° N
Cosmos 1953 Rocket 4.5 01:03:19 39° ENE 01:03:19 39° ENE 01:06:45 10° NNE
Cosmos 1315 Rocket 4.5 01:08:27 26° ENE 01:08:27 26° ENE 01:10:56 10° NNE
Meteor 1-24 Rocket 4.3 01:07:11 43° ESE 01:07:47 45° E 01:13:20 10° NNE
Cosmos 1953 3.9 01:05:13 10° NNW 01:07:49 28° WNW 01:07:49 28° WNW
Meteor 2-5 Rocket 3.7 01:10:12 66° SE 01:10:49 73° E 01:16:43 10° NNE
Cosmos 1758 Rocket 3.9 01:13:07 62° NE 01:13:07 62° NE 01:17:06 10° NNE
Cosmos-2242 3.9 01:09:11 10° N 01:13:00 41° ENE 01:13:00 41° ENE
Cosmos 972 Rocket 4.0 01:14:59 67° ESE 01:15:05 67° ESE 01:20:09 10° NNE
Cosmos 2333 Rocket 4.1 01:12:22 10° WNW 01:15:37 16° W 01:15:37 16° W
SL-16 R/B 2.2 01:16:49 10° NNW 01:22:26 65° WSW 01:22:35 65° WSW
Cosmos 2263 Rocket 3.8 01:22:47 21° ESE 01:23:12 21° E 01:27:21 10° NE
Meteor 1-16 Rocket 4.0 01:18:04 10° NNW 01:23:22 71° W 01:23:31 71° WSW
BREEZE-M DEB (TANK) 4.4 00:55:01 10° WNW 01:23:29 67° SW 01:25:55 46° SSE
H-2A R/B 3.3 01:24:33 32° WNW 01:24:33 32° WNW 01:27:36 10° NNW
Cosmos 1707 4.2 01:24:37 32° NW 01:24:37 32° NW 01:27:31 10° N
Cosmos 1818 4.1 01:26:14 45° W 01:27:27 54° NW 01:32:49 10° NNE
Cosmos 1346 Rocket 4.2 01:24:53 10° N 01:28:04 31° ENE 01:28:04 31° ENE
MOS 1 Rocket 4.0 01:25:07 10° NNE 01:30:26 51° E 01:30:56 49° ESE
Mayak 0.5 01:27:53 10° NNW 01:31:17 24° WNW 01:31:30 23° WNW
SL-08 R/B 4.5 01:29:52 10° N 01:36:00 71° E 01:37:21 54° SE
Cosmos 1726 3.8 01:33:44 10° NNE 01:36:35 27° ENE 01:36:35 27° ENE
Cosmos 1238 Rocket 3.4 01:38:01 60° WNW 01:38:01 60° WNW 01:41:50 10° N
GEOS 3 Rocket 4.5 01:33:34 10° NE 01:38:13 35° ESE 01:38:13 35° ESE
Cosmos 2297 Rocket 3.7 01:38:31 21° W 01:40:59 29° NW 01:45:51 10° N
Cosmos 1553 Rocket 3.9 01:41:05 59° SSE 01:42:19 78° E 01:48:29 10° N
Cosmos 1371 Rocket 3.9 01:38:06 10° NNW 01:43:22 74° WSW 01:43:27 74° WSW
Cosmos 2227 Rocket 3.9 01:41:33 17° W 01:44:24 25° NW 01:49:01 10° N
Cosmos 2237 Rocket 4.2 01:46:41 10° WNW 01:49:16 15° W 01:49:16 15° W
PSLV R/B 3.7 01:45:28 10° NNE 01:49:36 67° E 01:49:36 67° E
ISS -1.3 01:50:17 10° NW 01:51:14 17° NW 01:51:14 17° NW
Cosmos 1603 3.7 01:48:15 10° NNW 01:53:56 77° ENE 01:55:22 52° SE
CZ-4C R/B 4.3 01:56:09 36° N 01:56:09 36° N 01:58:20 10° N
Cosmos 1452 Rocket 4.3 01:53:05 10° N 01:58:12 48° ENE 02:00:20 31° ESE
Cosmos 2056 Rocket 3.4 01:55:18 10° NNW 02:00:22 66° WSW 02:00:22 66° WSW
Cosmos 2221 4.2 01:56:50 10° NNE 02:00:35 27° ENE 02:01:57 23° ESE
Meteor 2-1 Rocket 4.2 01:55:56 10° N 02:01:44 84° E 02:03:02 56° SSE
Cosmos 2292 Rocket 3.7 01:58:18 10° NNW 02:02:11 71° W 02:02:11 71° W
Cosmos 2227 4.1 02:03:34 64° SW 02:04:29 85° WNW 02:10:10 10° NNE
Cosmos 158 Rocket 4.4 02:05:50 48° SE 02:06:37 53° ESE 02:11:51 10° NNE
Cosmos 1624 Rocket 4.3 02:05:24 10° NNW 02:10:33 51° WSW 02:10:34 51° WSW
Helios 1B 4.5 02:12:24 77° ESE 02:12:34 79° ENE 02:16:56 10° N
Cosmos 1674 3.4 02:18:40 47° NW 02:18:40 47° NW 02:21:41 10° N
Cosmos 1626 4.2 02:17:53 19° E 02:18:19 20° E 02:21:05 10° NE
SL-16 R/B 3.6 02:14:42 14° SE 02:19:42 42° ENE 02:25:28 10° N
Cosmos 2315 Rocket 4.2 02:23:40 38° SSE 02:25:58 62° E 02:32:07 10° NNE
CZ-4B R/B 2.0 02:27:51 55° N 02:27:51 55° N 02:30:36 10° NNW
Cosmos 1420 Rocket 4.1 02:22:30 10° NNW 02:27:44 74° ENE 02:29:33 41° SE
Cosmos 1842 Rocket 3.4 02:23:47 10° N 02:28:10 80° W 02:28:16 79° WSW
NOSS 3-1 (C) 3.3 02:27:45 49° SW 02:29:26 79° NW 02:35:54 10° NE
Genesis I 4.3 02:29:49 34° ESE 02:29:49 34° ESE 02:33:12 10° NE
Cosmos 1745 Rocket 4.2 02:23:49 10° NNW 02:30:02 57° W 02:31:39 45° SW
CZ-2D R/B 3.3 02:25:48 10° NNE 02:30:27 32° E 02:32:31 24° SE
Cosmos 1340 2.8 02:28:23 10° N 02:32:07 68° ENE 02:32:07 68° ENE
Aureole 1 Rocket 3.2 02:35:14 45° NE 02:35:14 45° NE 02:37:30 10° NNE
SeaSat 1 3.7 02:36:07 10° ESE 02:40:42 40° NE 02:45:18 10° NNW
BREEZE M DEB (TANK) 4.1 02:45:12 34° SSW 02:47:54 44° SSE 02:51:43 10° ENE
Cosmos 1844 Rocket 4.5 02:45:39 15° SE 02:48:41 23° E 02:52:59 10° NE
NOSS 3-1 (A) 3.3 02:47:39 43° SW 02:49:41 82° NW 02:56:11 10° NE
Resurs 1-4 Rocket 2.6 02:47:05 10° NNE 02:52:17 52° E 02:54:35 31° SSE
H-2A R/B 3.1 02:48:48 10° NNE 02:53:12 53° E 02:54:27 39° SSE
ARIANE 5 R/B 3.9 02:49:36 10° NNE 02:54:08 31° E 02:56:56 19° SE
Cosmos 1689 Rocket 3.7 02:58:08 28° NW 02:58:08 28° NW 03:00:00 10° NNW
IRS-P3 4.2 02:52:07 10° NNE 02:57:28 74° ESE 02:59:33 38° S
NPP 3.6 02:52:02 10° NNE 02:57:28 82° ESE 02:59:32 39° S
USA 267 3.6 02:52:31 10° ENE 02:58:51 50° SE 03:01:37 32° S
Okean 3 Rocket 3.7 03:01:20 43° SSE 03:02:41 72° E 03:07:09 10° NNE
UNK 3.7 03:02:33 34° SSE 03:04:36 83° ENE 03:09:18 10° NNW
Cosmos 1943 3.4 03:00:22 10° NW 03:05:51 49° WSW 03:07:25 38° SSW
Cosmos 1300 3.0 03:02:48 10° NNW 03:06:26 47° W 03:06:26 47° W
Cosmos 2263 Rocket 2.5 03:04:28 36° WSW 03:06:39 58° WNW 03:12:17 10° NNE
Cosmos 1709 Rocket 4.1 03:00:48 10° NNW 03:07:03 59° W 03:09:46 34° SSW
Cosmos 2074 Rocket 4.4 03:01:13 10° N 03:07:22 60° E 03:12:52 13° SSE
SL-08 R/B 3.3 03:05:03 31° SSE 03:07:27 89° E 03:12:24 10° NNW
DELTA 2 R/B (1) 3.6 03:05:38 28° WSW 03:08:23 56° S 03:13:52 10° ESE
Cosmos 2184 Rocket 4.4 03:05:25 10° N 03:11:46 64° E 03:17:39 12° SSE
Cosmos 1726 4.1 03:09:27 10° NW 03:11:08 17° WNW 03:11:08 17° WNW
ADEOS II 4.3 03:09:58 10° NE 03:13:37 19° E 03:17:16 10° SE
Cosmos 1607 4.1 03:09:31 10° NNW 03:15:59 76° NE 03:22:16 10° SE
Cosmos 2285 Rocket 4.1 03:13:14 33° SW 03:16:13 67° WNW 03:22:34 10° NNE
GEOS 3 Rocket 4.4 03:11:25 10° NNE 03:16:30 45° NW 03:19:20 24° WSW
Cosmos 1455 3.3 03:13:24 10° N 03:17:00 41° ENE 03:19:31 17° SE
Cosmos 1076 Rocket 3.7 03:24:23 40° SW 03:25:39 56° W 03:29:57 10° N
OAO 2 Rocket 4.1 03:27:46 29° S 03:28:18 30° S 03:32:35 10° ESE
Cosmos 1269 Rocket 4.1 03:30:29 31° SW 03:32:59 68° WNW 03:38:18 10° NNE
Cosmos 1331 Rocket 4.1 03:29:15 10° NNW 03:34:25 74° ENE 03:39:34 10° SSE
Cosmos 2327 Rocket 4.5 03:28:57 10° N 03:35:05 81° E 03:41:08 10° S
Cosmos 2221 3.6 03:34:23 10° NNW 03:38:05 27° W 03:38:48 25° WSW
Cosmos 2151 3.9 03:35:03 16° SSE 03:38:14 45° E 03:42:21 10° NNE
MOZ.5/SAFIR/RUBIN 5/SL-8 3.7 03:36:20 22° S 03:39:27 71° WSW 03:44:14 10° NNW
NOSS 2-3 (D) 3.8 03:41:31 29° SW 03:43:53 88° WNW 03:49:15 10° NE
Cosmos 2251 Rocket 4.4 03:41:24 15° S 03:45:39 47° ESE 03:50:48 10° NNE
ADEOS 4.1 03:42:32 10° NNE 03:47:40 54° E 03:52:17 13° S
Orbus 7S? 4.4 03:48:17 17° SSE 03:49:08 19° ESE 03:51:22 10° ENE
SAR-Lupe-2 3.5 03:48:13 17° SSE 03:50:55 89° NE 03:54:31 10° NNW
Meteor 1-27 4.2 03:47:24 10° NNW 03:53:05 74° W 03:58:48 10° S
Cosmos 1626 3.4 03:52:29 23° W 03:53:28 25° WNW 03:56:38 10° NNW
Geosat 4.0 03:49:56 10° NNE 03:54:58 77° WNW 03:58:17 22° SW
NOSS 5 (C) 4.4 03:58:30 26° SSW 04:00:28 78° SE 04:03:38 10° NE
Cosmos 1328 Rocket 3.4 03:57:27 10° NNW 04:01:47 76° W 04:05:49 11° S
SL-16 R/B 3.3 03:59:47 19° SSW 04:03:22 34° W 04:08:56 10° NNW
Cosmos 1500 Rocket 4.1 03:59:20 11° S 04:03:35 60° E 04:07:58 10° NNE
NOSS 2-3 (E) 4.2 04:01:40 21° WSW 04:04:42 58° NW 04:10:05 10° NNE
Cosmos 405 Rocket 3.7 04:01:54 10° N 04:05:38 46° ENE 04:09:17 10° SSE
Cosmos 1766 Rocket 4.2 04:04:53 22° SW 04:07:11 39° WNW 04:11:18 10° N
Cosmos 2228 Rocket 3.2 04:02:53 10° N 04:07:30 82° E 04:12:03 10° S
Spot 4 Rocket 4.4 04:04:51 10° N 04:09:50 51° WNW 04:13:34 17° SW
CZ-2D R/B 3.0 04:05:52 10° N 04:10:29 33° WNW 04:13:51 16° WSW
SL-19 R/B 4.1 04:09:44 10° SSE 04:12:38 57° ENE 04:15:26 10° N
ATLAS 2AS CENTAUR R/B 3.6 04:05:41 11° SSW 04:12:55 56° ESE 04:20:49 10° NE
Cosmos 921 Rocket 4.0 04:09:38 10° NW 04:13:18 28° W 04:15:35 18° SW
NOSS 8 (A) 4.3 04:15:28 19° SSW 04:17:36 71° SE 04:20:47 10° NE
SeaSat 1 3.3 04:14:42 13° SSW 04:18:17 29° WSW 04:22:33 10° NW
Meteor 2-21 Rocket 4.4 04:16:53 10° NNW 04:22:57 67° W 04:28:57 10° S
Cosmos 1515 Rocket 3.5 04:19:27 10° NNW 04:23:45 64° W 04:28:02 10° S
GP-B 3.3 04:20:17 10° N 04:24:44 72° E 04:29:09 10° S
Meteor 2-16 Rocket 4.4 04:21:23 10° NNW 04:27:29 75° W 04:33:34 10° S
Meteor 2-10 Rocket 3.4 04:24:19 10° N 04:29:25 88° W 04:34:25 10° S
Cosmos 2341 Rocket 4.0 04:23:25 10° N 04:29:41 86° W 04:35:59 10° S
Cosmos 1441 Rocket 3.2 04:26:07 10° NNW 04:30:05 69° W 04:34:00 10° S
Resurs 1-4 Rocket 3.6 04:27:44 10° NNW 04:31:44 22° WNW 04:35:40 10° WSW
Cosmos 1844 Rocket 3.0 04:27:19 14° SW 04:32:08 54° WNW 04:37:44 10° NNE
ARIANE 5 R/B 3.5 04:28:42 10° N 04:33:12 32° WNW 04:37:17 12° SW
Okean O Rocket 4.3 04:32:04 10° NE 04:34:57 17° E 04:37:51 10° SE
SL-8 Rocket 4.3 04:32:18 10° N 04:38:30 74° E 04:44:41 10° SSE
UNKNOWN OBJECT B 3.5 04:35:41 10° N 04:39:07 36° WNW 04:42:24 11° SW
Cosmos 1151 Rocket 3.5 04:35:41 10° NNW 04:39:49 42° W 04:43:55 10° SSW
Cosmos 2278 Rocket 2.7 04:34:27 10° S 04:40:01 61° ESE 04:45:36 10° NNE
Helios 1A Rocket 3.7 04:38:08 10° N 04:41:52 35° WNW 04:45:32 10° SW
USA 267 3.7 04:35:32 10° NE 04:41:53 55° NNW 04:48:13 10° WSW
Cosmos 1892 4.5 04:40:44 10° SSE 04:44:12 33° E 04:47:41 10° NNE
Cosmos 1844 4.0 04:39:31 11° SW 04:44:52 55° WNW 04:50:29 10° NNE
Cosmos 2181 Rocket 4.1 04:40:03 10° S 04:46:29 82° W 04:52:59 10° N
Cosmos 2058 4.2 04:43:47 11° SW 04:47:07 25° WNW 04:50:37 10° NNW
Cosmos 1833 Rocket 4.3 04:43:16 10° NNW 04:48:32 39° ENE 04:53:46 10° SE
Cosmos 2366 rocket 4.4 04:43:18 10° N 04:49:34 69° E 04:55:44 10° SSE
Cosmos 2263 Rocket 4.4 04:50:00 10° WNW 04:51:52 11° NW 04:53:44 10° NNW
Sich 1 4.1 04:47:49 10° SSE 04:51:52 45° E 04:55:58 10° NNE
Cosmos 1455 4.2 04:50:36 10° WNW 04:52:14 12° W 04:53:52 10° WSW
ADEOS II 2.3 04:48:32 10° N 04:53:41 56° WNW 04:58:48 10° SSW
DELTA 2 R/B (1) 4.5 04:49:34 10° W 04:54:17 28° SSW 04:59:00 10° SSE
Cosmos 1869 3.8 04:50:53 10° NNW 04:54:34 39° W 04:58:14 10° SSW
Cosmos 724 4.4 04:49:23 10° NNW 04:55:24 88° WSW 05:01:29 10° SSE
ATLAS 3B R/B 3.2 04:48:54 10° NNW 04:55:32 65° NE 05:02:02 10° SE
BREEZE-M DEB (TANK) 3.4 04:50:38 10° SW 04:56:46 44° SSE 04:59:04 10° ENE
